SCP
0 0 0 0 0 0 0 0 0 -0 -0 0 0 0 -0 0 0 0 0 0 -1 -0 -0 -0 -0 -0 -0 -0 -0 -0 -0 -0 -0 -0 0 0 -0 -0 -0 -0 -0 -0 0 0 0 0 0 0 -0
0 0 0 0 0 0 0 0 0 -0 0 0 0 0 0 0 -0 -0 0 -0 -1 -0 0 0 -0 -0 -0 -0 -0 -0 -0 -0 -0 -0 -0 0 0 -0 -0 -0 -0 -0 -0 0 0 0 0 0 -0
0 0 0 0 0 0 0 0 0 -0 0 0 0 0 0 -0 -0 -0 -0 0 -0 0 0 0 -0 -0 -0 -0 -0 -0 -0 -0 -0 -0 -0 0 0 -0 -0 -0 -0 -0 -0 0 0 0 0 -0 -0
0 0 0 0 0 0 0 0 0 0 0 0 0 0 1 0 0 0 -1 -0 -0 0 0 0 -0 -0 -0 -0 -0 -0 -0 -0 -0 -0 -0 -0 -0 -0 -0 -0 -0 -0 -0 -0 -0 -0 -0 -0 -0
0 0 0 0 0 0 0 0 0 0 -0 0 0 0 0 0 0 1 1 0 0 0 0 0 -0 -0 -0 -0 -0 -0 -0 -0 -0 -0 -0 -0 -0 -0 -0 -0 -0 -0 -0 -0 -0 -0 0 0 -0
0 0 0 0 0 0 0 0 0 0 0 0 0 0 2 1 0 2 1 0 0 1 0 1 0 0 -0 -0 -0 -0 -0 -0 -0 -0 -0 -0 -0 0 0 0 -0 -0 -0 0 0 0 0 0 -0
0 0 0 0 0 0 0 0 0 0 0 0 0 0 1 1 0 0 0 0 1 1 1 1 1 1 0 0 0 0 0 0 0 0 0 0 0 0 0 0 0 0 0 0 0 0 0 0 0
0 0 0 0 0 0 0 0 0 0 0 0 0 0 1 1 1 0 0 2 1 1 1 1 1 1 1 1 0 0 0 0 0 0 0 0 0 0 0 0 0 0 0 0 0 0 0 0 0
0 0 0 0 0 0 0 0 0 0 0 0 0 0 0 0 1 1 0 0 1 1 1 1 1 1 1 1 1 1 0 0 0 0 0 0 0 0 0 0 0 0 0 0 0 0 0 0 0
0 0 0 0 0 0 0 0 -0 0 0 0 0 2 1 1 2 1 0 0 1 0 0 1 0 1 1 1 1 1 1 1 1 0 0 0 0 0 0 0 0 0 0 0 0 0 0 0 0
0 0 0 0 0 0 0 0 -0 0 0 0 0 1 2 1 1 0 0 0 0 0 0 0 0 0 0 1 1 1 1 1 0 0 0 0 0 0 0 0 0 0 0 0 0 0 0 0 0
0 0 0 0 0 0 0 0 -0 0 0 0 0 1 1 0 -0 -0 -0 0 0 0 0 0 0 0 0 1 0 0 0 0 0 0 0 0 0 0 0 0 0 0 0 0 0 0 0 0 0
0 0 0 0 0 0 0 0 0 0 0 0 0 0 0 0 0 0 0 0 0 0 0 0 0 0 0 0 0 0 0 0 0 0 0 0 0 0 0 0 0 0 0 0 0 0 0 0 0
0 0 0 0 0 0 0 0 0 0 0 0 -0 0 0 0 -0 -0 0 0 0 0 0 0 0 0 0 0 0 0 0 0 0 0 0 0 0 -0 0 0 0 0 0 0 0 0 0 0 0
0 0 0 0 0 0 0 0 0 0 0 0 -0 0 0 -0 0 -0 0 0 0 0 0 0 0 0 0 0 0 0 0 0 0 0 0 0 0 0 0 0 0 0 0 0 0 0 0 1 0
0 0 0 0 0 0 0 0 0 0 0 0 0 0 0 0 0 -0 -0 0 0 0 0 0 1 0 0 0 0 0 0 0 1 1 1 0 0 0 1 1 1 0 0 0 0 1 1 1 0
0 0 0 0 0 0 0 0 0 0 0 0 0 0 0 0 0 0 0 0 0 0 0 0 0 0 0 0 0 0 0 0 0 2 2 1 1 0 1 2 1 1 1 1 0 0 0 0 0
0 0 0 0 0 0 0 0 0 0 0 0 0 0 0 0 0 0 0 0 0 0 0 -0 0 0 0 0 0 0 0 0 -0 2 3 2 2 1 2 2 1 1 1 0 0 0 0 1 0
0 0 0 0 -0 0 0 0 0 0 0 0 0 0 0 0 0 0 0 0 0 0 0 0 0 0 0 0 0 0 0 0 0 1 1 2 3 3 2 1 1 2 2 1 1 0 1 1 0
0 0 0 -0 -0 0 0 0 0 0 0 0 0 0 0 0 0 0 0 0 0 0 0 0 0 0 0 0 0 0 0 0 0 -0 0 2 3 2 0 0 0 0 1 1 1 1 0 0 0
0 0 0 0 0 0 0 0 0 0 0 0 0 0 0 0 0 0 0 0 0 0 0 0 0 -0 0 0 0 0 0 0 0 -0 1 3 3 2 0 -0 0 1 1 1 1 1 0 0 0
0 0 0 0 0 0 0 0 0 0 0 0 0 0 0 0 0 0 0 0 0 0 0 0 0 1 0 0 0 0 -0 0 0 1 2 4 1 0 1 2 1 1 1 1 0 1 1 0 0
0 -0 0 0 0 0 0 0 0 0 0 0 0 0 0 0 0 0 0 0 0 0 0 1 4 8 8 6 4 2 2 1 1 2 0 1 1 2 2 1 3 2 0 0 0 0 1 0 0
-0 0 0 0 0 0 0 0 0 0 0 0 0 0 0 0 0 0 0 0 0 0 0 1 7 6 7 8 6 4 1 1 1 1 1 2 2 1 1 2 1 0 0 0 0 0 0 0 0
0 0 0 0 0 0 0 0 0 0 0 0 0 0 0 0 0 0 0 0 0 0 1 1 1 5 1 0 0 0 1 0 0 0 0 0 0 0 0 0 0 0 1 1 0 0 0 0 0
0 0 0 0 0 0 0 0 0 0 0 0 0 0 0 0 0 0 0 0 0 0 0 0 0 0 0 0 0 0 0 0 0 0 0 0 0 0 0 0 0 0 0 0 0 0 0 1 0
0 0 0 0 0 0 0 0 0 0 0 0 0 0 0 0 0 0 0 0 0 0 0 0 0 0 0 0 0 0 0 0 0 0 0 0 0 0 0 0 0 0 0 0 0 0 0 0 0
0 0 0 -0 0 0 -0 0 0 0 0 0 0 0 0 0 0 0 0 0 0 0 0 0 0 0 0 0 0 0 0 0 0 0 0 0 0 0 0 0 0 0 0 0 0 0 0 0 0
0 0 0 0 0 0 -0 0 0 0 0 0 0 0 0 0 0 0 0 0 0 0 0 0 0 0 0 0 0 0 0 0 0 0 0 0 0 0 0 0 0 0 0 0 0 0 0 0 0
0 0 0 0 0 0 0 0 0 0 0 0 0 0 0 0 0 0 0 0 0 0 0 0 0 0 0 0 0 0 0 0 0 0 0 0 0 0 0 0 0 0 0 0 0 0 0 0 0
Wind_Speed_500mb
32 16 14 26 4 3 11 19 22 37 35 27 25 8 18 18 14 18 16 46 37 56 62 60 61 57 54 48 46 43 39 38 35 33 34 37 38 39 39 41 39 35 30 26 24 23 25 27 28
27 20 18 12 5 5 12 32 33 39 32 17 11 12 14 8 38 40 54 61 41 60 64 63 62 58 56 52 48 45 42 39 35 32 33 36 38 38 37 37 35 31 27 24 21 22 22 23 24
21 19 6 8 8 16 12 33 34 29 34 41 8 21 26 34 31 64 50 64 49 64 64 60 60 56 51 50 47 45 43 41 37 32 32 34 36 36 35 35 32 31 26 21 19 20 20 19 20
13 8 14 4 18 25 38 43 30 44 30 21 28 7 25 49 78 55 61 60 52 67 64 60 56 54 50 46 43 41 41 41 38 32 30 31 34 34 34 34 32 28 24 19 17 18 17 16 16
17 12 8 11 21 29 36 49 49 26 32 3 33 12 37 43 48 70 75 60 51 66 64 61 56 51 47 42 42 42 43 41 38 32 30 30 32 33 33 33 30 25 21 20 19 18 16 14 14
10 10 4 23 30 28 35 59 51 28 40 50 22 23 20 43 65 69 62 49 47 66 68 65 61 53 46 46 45 44 45 43 39 33 29 27 29 34 33 31 28 25 23 20 20 18 17 15 13
16 4 13 17 24 31 42 66 37 22 32 38 24 10 19 46 50 51 26 22 38 51 65 65 62 58 53 46 46 47 46 43 39 34 29 26 28 32 34 32 29 26 24 22 20 18 16 14 12
36 6 15 20 27 37 44 56 52 44 23 55 17 8 6 48 46 57 48 44 39 32 51 63 64 60 55 53 46 46 45 42 38 35 31 28 29 33 34 33 31 28 25 22 20 18 16 14 12
36 17 26 35 30 26 46 29 59 62 58 40 35 5 34 40 42 44 47 32 42 36 33 53 58 57 55 54 54 49 46 44 39 37 34 32 32 35 36 34 31 28 26 24 22 20 18 16 14
16 16 39 21 27 27 39 40 47 36 18 44 55 15 42 52 53 34 18 17 21 28 19 51 51 53 52 51 53 52 50 49 47 45 41 37 36 38 38 36 34 31 29 26 25 23 21 18 14
21 36 22 32 56 62 46 54 50 23 19 15 40 38 45 43 36 43 51 42 11 25 32 36 52 49 49 50 50 51 52 50 48 45 42 39 39 40 40 38 37 34 32 29 27 25 23 17 18
29 49 46 49 57 52 27 51 39 39 36 44 52 49 53 47 55 54 74 55 24 18 37 43 41 46 43 41 49 48 50 50 48 47 44 43 43 41 34 39 37 30 28 28 31 29 26 17 12
37 30 55 66 68 63 58 44 44 45 53 48 32 32 45 55 60 50 56 78 51 16 25 56 55 39 39 41 34 40 46 45 42 41 40 42 42 42 33 26 31 25 20 12 20 13 13 20 15
38 41 48 55 60 63 37 35 36 66 51 44 16 13 39 45 49 53 48 48 50 53 29 22 65 56 56 42 45 36 35 36 36 40 40 42 44 41 37 36 31 29 29 26 20 20 17 10 14
52 31 28 30 36 18 34 21 40 58 53 49 38 24 22 44 51 50 49 51 53 50 58 35 52 65 64 47 44 38 19 31 35 32 28 27 40 45 39 40 45 40 36 30 25 26 26 25 26
19 17 26 20 15 30 23 28 20 43 50 54 51 34 28 39 62 75 68 54 40 40 49 53 43 48 63 71 50 49 57 44 53 47 38 33 28 36 39 41 36 33 35 41 37 32 35 32 36
14 18 19 15 22 15 27 24 20 41 43 50 61 52 40 32 56 58 52 36 30 19 16 15 34 49 59 62 65 52 56 47 56 61 48 39 38 34 38 48 47 38 35 37 43 41 31 23 43
22 20 22 24 28 26 20 25 22 48 42 36 36 75 54 49 46 66 59 48 42 32 18 21 24 35 70 43 86 83 39 69 107 68 58 49 44 39 40 39 46 53 49 41 43 30 26 42 41
30 33 27 36 30 22 31 18 20 33 44 37 52 48 57 49 67 62 67 63 56 42 28 20 21 18 35 46 71 98 70 45 59 47 53 48 42 45 47 43 37 54 49 46 42 28 24 31 37
38 37 37 23 37 24 20 21 20 22 22 53 58 62 62 64 51 56 71 68 64 58 45 28 21 15 21 32 13 70 68 46 36 51 51 46 44 54 51 48 36 48 43 42 40 37 41 40 36
40 39 31 20 17 8 11 9 11 13 24 42 53 72 69 63 62 52 59 77 74 69 60 45 28 22 18 19 13 30 25 33 35 62 57 39 43 48 27 37 41 39 37 47 40 45 39 38 43
37 40 41 27 12 7 7 12 17 15 25 15 37 57 67 64 66 61 46 71 82 63 54 59 48 36 24 33 25 20 30 29 38 31 28 41 36 34 30 37 35 30 45 37 36 35 42 42 43
35 31 32 20 12 3 15 2 14 11 10 7 13 34 23 52 58 57 57 61 69 60 66 67 54 51 33 26 31 24 24 29 25 16 18 24 27 35 21 31 32 37 42 45 43 45 48 43 41
38 17 15 18 9 10 13 12 14 13 15 10 8 31 32 22 12 7 10 50 68 65 57 51 48 47 31 20 18 18 24 28 24 26 13 15 22 20 25 36 36 35 42 41 42 43 44 44 44
23 13 4 4 8 10 22 20 22 11 14 14 16 25 28 24 15 17 18 29 37 34 20 27 35 24 18 20 23 24 27 26 27 18 17 19 22 25 28 28 31 32 35 33 32 37 44 49 54
19 18 11 16 10 21 25 17 15 16 22 28 31 30 25 37 40 37 40 44 38 35 28 18 9 22 30 25 16 16 20 17 17 21 18 22 20 23 28 33 38 39 35 34 39 44 47 48 52
17 19 15 6 5 3 5 9 14 16 16 17 24 24 50 55 56 50 47 46 39 33 25 25 14 13 8 9 8 12 11 13 9 13 22 20 19 17 18 20 26 33 38 45 49 53 58 59 62
27 19 19 7 12 9 1 11 2 11 14 30 12 37 54 58 53 45 36 31 32 31 25 9 16 3 5 10 8 6 8 6 7 10 14 21 28 29 28 30 35 40 46 50 54 58 63 67 71
14 20 12 9 8 12 8 7 18 8 14 24 30 31 52 45 39 40 45 41 32 23 21 16 17 7 13 13 11 9 10 10 13 17 22 27 31 37 42 48 50 51 53 55 58 60 63 67 68
18 15 13 9 2 7 8 3 9 6 22 49 26 29 47 45 42 45 50 47 38 41 40 35 26 20 16 12 9 11 15 19 24 29 31 35 38 41 44 49 53 56 57 56 57 56 56 53 55
Wind_Direction_500mb
259 259 289 319 15 155 252 257 262 282 296 76 355 343 108 86 148 163 220 229 198 172 166 165 166 165 162 161 158 157 154 150 141 131 130 133 133 132 134 138 136 134 130 123 119 120 124 126 122
246 237 287 260 169 256 259 250 260 257 317 134 165 292 74 59 143 165 176 202 196 176 168 166 168 168 165 165 164 162 161 156 150 141 134 136 137 136 137 142 144 140 136 131 131 132 133 138 134
228 225 274 182 204 226 248 258 257 302 337 347 170 255 119 150 141 157 179 180 186 176 169 167 168 170 170 169 168 167 165 162 159 149 140 140 142 143 144 147 148 148 144 142 142 141 141 144 147
193 199 254 232 239 233 234 263 281 288 307 321 320 67 96 146 149 166 189 180 182 173 168 166 170 172 173 174 173 172 171 167 164 156 147 145 149 149 150 154 155 153 149 150 156 151 146 148 152
190 253 228 225 242 257 264 265 281 295 319 207 293 274 138 156 165 167 176 173 181 173 168 167 170 175 175 178 178 177 176 174 170 164 158 154 156 160 162 163 162 160 159 159 166 164 158 161 168
228 219 255 231 251 256 261 266 275 289 300 300 293 329 67 121 135 166 177 179 185 172 170 169 170 174 179 180 180 180 180 179 176 173 168 163 167 171 172 172 173 171 168 169 177 180 173 177 186
217 228 220 256 264 263 249 261 269 269 272 268 15 47 102 123 132 140 135 160 173 167 173 172 172 175 176 182 182 179 180 181 180 180 179 177 179 180 181 180 181 181 179 179 187 192 189 193 199
224 228 261 240 244 260 270 277 279 253 273 276 351 18 166 139 146 138 140 177 172 177 184 178 177 179 179 177 182 181 180 184 186 186 187 190 190 188 188 189 190 190 191 192 194 202 201 204 207
228 233 238 241 242 243 269 273 275 288 241 244 277 353 150 162 147 120 81 115 172 180 199 193 184 182 182 182 179 183 184 185 192 195 195 197 196 193 193 195 199 200 203 203 206 207 212 214 214
210 226 234 245 255 263 271 283 287 309 295 238 254 136 155 150 174 181 9 315 157 185 203 202 196 190 188 188 186 185 190 191 195 197 198 197 196 195 195 198 205 210 213 215 216 219 225 231 235
250 241 244 239 253 266 276 282 290 298 291 262 225 168 162 166 178 187 193 190 212 202 207 210 207 199 196 196 193 193 196 198 199 202 201 198 197 196 197 203 208 214 221 226 231 233 237 244 249
239 240 245 253 258 259 263 283 283 279 276 299 320 183 159 153 155 165 169 177 195 236 211 210 203 200 202 199 202 204 204 203 204 204 201 199 199 196 197 206 208 214 230 240 240 243 245 232 239
229 242 237 239 247 255 268 271 277 285 292 284 317 194 149 145 150 160 185 206 208 188 188 197 197 190 197 206 203 216 218 216 214 215 209 204 201 200 192 219 226 215 217 240 235 248 245 231 244
239 243 246 242 231 237 249 261 283 272 281 288 273 127 141 145 156 156 183 205 196 211 174 181 194 185 188 206 221 222 234 221 224 223 219 207 205 200 205 218 228 230 243 246 256 264 273 250 251
247 254 268 243 241 232 242 260 248 267 276 285 280 262 241 159 155 154 157 177 186 194 181 195 189 195 189 190 201 216 232 217 221 216 214 212 213 200 205 222 227 229 241 250 254 250 254 248 239
255 256 250 258 235 227 215 256 263 261 268 276 275 268 250 209 148 141 144 155 167 178 193 199 210 211 194 197 206 201 203 221 235 228 225 223 213 216 207 225 227 234 239 238 241 255 258 260 253
269 241 244 246 255 232 198 242 251 266 258 259 265 264 256 246 199 179 173 174 158 143 156 202 216 211 202 204 208 219 206 207 244 225 229 226 225 235 231 221 218 228 233 235 238 239 256 257 261
233 227 236 247 228 238 242 229 222 236 251 257 265 260 255 252 247 192 194 191 192 178 148 107 158 185 214 217 215 216 233 230 259 221 220 223 228 233 231 232 226 223 232 247 246 264 259 235 235
244 245 226 230 239 201 230 222 212 214 225 237 250 253 264 266 253 207 211 217 192 196 197 163 144 176 182 204 215 230 243 225 296 201 212 222 236 231 222 225 230 231 222 232 249 259 245 226 239
240 247 253 261 227 205 207 225 223 224 212 214 225 238 251 261 268 223 203 207 206 207 201 187 155 136 170 197 252 228 219 251 225 236 216 218 224 226 241 245 261 249 245 244 246 243 239 256 264
228 242 252 247 289 191 178 267 257 259 223 226 224 227 235 249 255 253 215 208 217 216 209 205 179 157 167 191 160 173 194 180 271 234 230 225 227 238 245 232 238 261 245 241 244 242 246 257 258
226 225 242 258 266 228 163 241 251 238 242 245 239 225 226 235 247 249 244 215 214 211 221 222 213 208 165 180 185 185 199 202 184 214 223 217 212 246 248 234 240 231 225 229 230 224 241 254 256
228 215 214 244 261 205 290 92 256 260 186 175 39 60 16 247 237 235 230 226 203 229 229 211 201 208 203 171 173 191 205 218 223 237 254 233 209 231 246 238 235 227 232 240 239 239 251 257 263
232 219 183 201 203 245 228 234 261 242 215 116 79 80 67 98 99 170 192 218 224 219 199 188 197 206 204 205 179 204 213 211 212 239 205 199 228 249 244 246 253 249 249 251 251 252 247 249 257
209 131 221 227 211 216 223 226 228 179 133 143 140 127 108 108 70 68 83 157 181 172 191 218 228 209 219 219 221 208 210 228 243 247 243 220 202 206 216 215 217 228 242 253 264 264 260 259 262
205 166 158 180 173 228 232 248 272 106 86 108 115 99 102 110 112 105 115 121 140 161 154 129 170 173 206 213 209 182 186 194 193 186 208 209 177 190 210 216 222 227 235 241 249 254 259 263 265
191 201 190 160 220 103 192 144 66 89 92 86 81 50 83 82 90 114 121 117 114 124 116 124 86 104 104 151 222 259 257 252 210 189 198 195 209 236 234 233 233 237 242 247 255 262 266 267 270
186 162 210 201 181 221 278 78 245 40 7 36 59 83 77 79 84 95 105 111 123 130 138 83 332 302 22 18 37 22 334 316 286 286 276 264 256 272 287 286 280 277 276 276 276 275 274 276 275
188 192 189 130 125 170 128 126 359 41 73 54 25 35 99 93 93 98 97 96 105 99 81 101 113 60 75 65 43 36 17 351 331 315 305 299 294 292 291 291 292 294 292 290 288 287 285 284 285
193 180 145 125 248 69 103 91 334 49 118 88 54 3 115 123 123 115 114 109 106 109 104 111 101 86 72 65 27 6 341 329 322 314 310 309 305 297 293 293 296 296 297 295 289 285 281 278 276
Wind_Speed_850mb
32 16 14 26 4 3 11 19 22 37 35 27 25 8 18 18 14 18 16 46 37 56 62 60 61 57 54 48 46 43 39 38 35 33 34 37 38 39 39 41 39 35 30 26 24 23 25 27 28
27 20 18 12 5 5 12 32 33 39 32 17 11 12 14 8 38 40 54 61 41 60 64 63 62 58 56 52 48 45 42 39 35 32 33 36 38 38 37 37 35 31 27 24 21 22 22 23 24
21 19 6 8 8 16 12 33 34 29 34 41 8 21 26 34 31 64 50 64 49 64 64 60 60 56 51 50 47 45 43 41 37 32 32 34 36 36 35 35 32 31 26 21 19 20 20 19 20
13 8 14 4 18 25 38 43 30 44 30 21 28 7 25 49 78 55 61 60 52 67 64 60 56 54 50 46 43 41 41 41 38 32 30 31 34 34 34 34 32 28 24 19 17 18 17 16 16
17 12 8 11 21 29 36 49 49 26 32 3 33 12 37 43 48 70 75 60 51 66 64 61 56 51 47 42 42 42 43 41 38 32 30 30 32 33 33 33 30 25 21 20 19 18 16 14 14
10 10 4 23 30 28 35 59 51 28 40 50 22 23 20 43 65 69 62 49 47 66 68 65 61 53 46 46 45 44 45 43 39 33 29 27 29 34 33 31 28 25 23 20 20 18 17 15 13
16 4 13 17 24 31 42 66 37 22 32 38 24 10 19 46 50 51 26 22 38 51 65 65 62 58 53 46 46 47 46 43 39 34 29 26 28 32 34 32 29 26 24 22 20 18 16 14 12
36 6 15 20 27 37 44 56 52 44 23 55 17 8 6 48 46 57 48 44 39 32 51 63 64 60 55 53 46 46 45 42 38 35 31 28 29 33 34 33 31 28 25 22 20 18 16 14 12
36 17 26 35 30 26 46 29 59 62 58 40 35 5 34 40 42 44 47 32 42 36 33 53 58 57 55 54 54 49 46 44 39 37 34 32 32 35 36 34 31 28 26 24 22 20 18 16 14
16 16 39 21 27 27 39 40 47 36 18 44 55 15 42 52 53 34 18 17 21 28 19 51 51 53 52 51 53 52 50 49 47 45 41 37 36 38 38 36 34 31 29 26 25 23 21 18 14
21 36 22 32 56 62 46 54 50 23 19 15 40 38 45 43 36 43 51 42 11 25 32 36 52 49 49 50 50 51 52 50 48 45 42 39 39 40 40 38 37 34 32 29 27 25 23 17 18
29 49 46 49 57 52 27 51 39 39 36 44 52 49 53 47 55 54 74 55 24 18 37 43 41 46 43 41 49 48 50 50 48 47 44 43 43 41 34 39 37 30 28 28 31 29 26 17 12
37 30 55 66 68 63 58 44 44 45 53 48 32 32 45 55 60 50 56 78 51 16 25 56 55 39 39 41 34 40 46 45 42 41 40 42 42 42 33 26 31 25 20 12 20 13 13 20 15
38 41 48 55 60 63 37 35 36 66 51 44 16 13 39 45 49 53 48 48 50 53 29 22 65 56 56 42 45 36 35 36 36 40 40 42 44 41 37 36 31 29 29 26 20 20 17 10 14
52 31 28 30 36 18 34 21 40 58 53 49 38 24 22 44 51 50 49 51 53 50 58 35 52 65 64 47 44 38 19 31 35 32 28 27 40 45 39 40 45 40 36 30 25 26 26 25 26
19 17 26 20 15 30 23 28 20 43 50 54 51 34 28 39 62 75 68 54 40 40 49 53 43 48 63 71 50 49 57 44 53 47 38 33 28 36 39 41 36 33 35 41 37 32 35 32 36
14 18 19 15 22 15 27 24 20 41 43 50 61 52 40 32 56 58 52 36 30 19 16 15 34 49 59 62 65 52 56 47 56 61 48 39 38 34 38 48 47 38 35 37 43 41 31 23 43
22 20 22 24 28 26 20 25 22 48 42 36 36 75 54 49 46 66 59 48 42 32 18 21 24 35 70 43 86 83 39 69 107 68 58 49 44 39 40 39 46 53 49 41 43 30 26 42 41
30 33 27 36 30 22 31 18 20 33 44 37 52 48 57 49 67 62 67 63 56 42 28 20 21 18 35 46 71 98 70 45 59 47 53 48 42 45 47 43 37 54 49 46 42 28 24 31 37
38 37 37 23 37 24 20 21 20 22 22 53 58 62 62 64 51 56 71 68 64 58 45 28 21 15 21 32 13 70 68 46 36 51 51 46 44 54 51 48 36 48 43 42 40 37 41 40 36
40 39 31 20 17 8 11 9 11 13 24 42 53 72 69 63 62 52 59 77 74 69 60 45 28 22 18 19 13 30 25 33 35 62 57 39 43 48 27 37 41 39 37 47 40 45 39 38 43
37 40 41 27 12 7 7 12 17 15 25 15 37 57 67 64 66 61 46 71 82 63 54 59 48 36 24 33 25 20 30 29 38 31 28 41 36 34 30 37 35 30 45 37 36 35 42 42 43
35 31 32 20 12 3 15 2 14 11 10 7 13 34 23 52 58 57 57 61 69 60 66 67 54 51 33 26 31 24 24 29 25 16 18 24 27 35 21 31 32 37 42 45 43 45 48 43 41
38 17 15 18 9 10 13 12 14 13 15 10 8 31 32 22 12 7 10 50 68 65 57 51 48 47 31 20 18 18 24 28 24 26 13 15 22 20 25 36 36 35 42 41 42 43 44 44 44
23 13 4 4 8 10 22 20 22 11 14 14 16 25 28 24 15 17 18 29 37 34 20 27 35 24 18 20 23 24 27 26 27 18 17 19 22 25 28 28 31 32 35 33 32 37 44 49 54
19 18 11 16 10 21 25 17 15 16 22 28 31 30 25 37 40 37 40 44 38 35 28 18 9 22 30 25 16 16 20 17 17 21 18 22 20 23 28 33 38 39 35 34 39 44 47 48 52
17 19 15 6 5 3 5 9 14 16 16 17 24 24 50 55 56 50 47 46 39 33 25 25 14 13 8 9 8 12 11 13 9 13 22 20 19 17 18 20 26 33 38 45 49 53 58 59 62
27 19 19 7 12 9 1 11 2 11 14 30 12 37 54 58 53 45 36 31 32 31 25 9 16 3 5 10 8 6 8 6 7 10 14 21 28 29 28 30 35 40 46 50 54 58 63 67 71
14 20 12 9 8 12 8 7 18 8 14 24 30 31 52 45 39 40 45 41 32 23 21 16 17 7 13 13 11 9 10 10 13 17 22 27 31 37 42 48 50 51 53 55 58 60 63 67 68
18 15 13 9 2 7 8 3 9 6 22 49 26 29 47 45 42 45 50 47 38 41 40 35 26 20 16 12 9 11 15 19 24 29 31 35 38 41 44 49 53 56 57 56 57 56 56 53 55
Wind_Direction_850mb
259 259 289 319 15 155 252 257 262 282 296 76 355 343 108 86 148 163 220 229 198 172 166 165 166 165 162 161 158 157 154 150 141 131 130 133 133 132 134 138 136 134 130 123 119 120 124 126 122
246 237 287 260 169 256 259 250 260 257 317 134 165 292 74 59 143 165 176 202 196 176 168 166 168 168 165 165 164 162 161 156 150 141 134 136 137 136 137 142 144 140 136 131 131 132 133 138 134
228 225 274 182 204 226 248 258 257 302 337 347 170 255 119 150 141 157 179 180 186 176 169 167 168 170 170 169 168 167 165 162 159 149 140 140 142 143 144 147 148 148 144 142 142 141 141 144 147
193 199 254 232 239 233 234 263 281 288 307 321 320 67 96 146 149 166 189 180 182 173 168 166 170 172 173 174 173 172 171 167 164 156 147 145 149 149 150 154 155 153 149 150 156 151 146 148 152
190 253 228 225 242 257 264 265 281 295 319 207 293 274 138 156 165 167 176 173 181 173 168 167 170 175 175 178 178 177 176 174 170 164 158 154 156 160 162 163 162 160 159 159 166 164 158 161 168
228 219 255 231 251 256 261 266 275 289 300 300 293 329 67 121 135 166 177 179 185 172 170 169 170 174 179 180 180 180 180 179 176 173 168 163 167 171 172 172 173 171 168 169 177 180 173 177 186
217 228 220 256 264 263 249 261 269 269 272 268 15 47 102 123 132 140 135 160 173 167 173 172 172 175 176 182 182 179 180 181 180 180 179 177 179 180 181 180 181 181 179 179 187 192 189 193 199
224 228 261 240 244 260 270 277 279 253 273 276 351 18 166 139 146 138 140 177 172 177 184 178 177 179 179 177 182 181 180 184 186 186 187 190 190 188 188 189 190 190 191 192 194 202 201 204 207
228 233 238 241 242 243 269 273 275 288 241 244 277 353 150 162 147 120 81 115 172 180 199 193 184 182 182 182 179 183 184 185 192 195 195 197 196 193 193 195 199 200 203 203 206 207 212 214 214
210 226 234 245 255 263 271 283 287 309 295 238 254 136 155 150 174 181 9 315 157 185 203 202 196 190 188 188 186 185 190 191 195 197 198 197 196 195 195 198 205 210 213 215 216 219 225 231 235
250 241 244 239 253 266 276 282 290 298 291 262 225 168 162 166 178 187 193 190 212 202 207 210 207 199 196 196 193 193 196 198 199 202 201 198 197 196 197 203 208 214 221 226 231 233 237 244 249
239 240 245 253 258 259 263 283 283 279 276 299 320 183 159 153 155 165 169 177 195 236 211 210 203 200 202 199 202 204 204 203 204 204 201 199 199 196 197 206 208 214 230 240 240 243 245 232 239
229 242 237 239 247 255 268 271 277 285 292 284 317 194 149 145 150 160 185 206 208 188 188 197 197 190 197 206 203 216 218 216 214 215 209 204 201 200 192 219 226 215 217 240 235 248 245 231 244
239 243 246 242 231 237 249 261 283 272 281 288 273 127 141 145 156 156 183 205 196 211 174 181 194 185 188 206 221 222 234 221 224 223 219 207 205 200 205 218 228 230 243 246 256 264 273 250 251
247 254 268 243 241 232 242 260 248 267 276 285 280 262 241 159 155 154 157 177 186 194 181 195 189 195 189 190 201 216 232 217 221 216 214 212 213 200 205 222 227 229 241 250 254 250 254 248 239
255 256 250 258 235 227 215 256 263 261 268 276 275 268 250 209 148 141 144 155 167 178 193 199 210 211 194 197 206 201 203 221 235 228 225 223 213 216 207 225 227 234 239 238 241 255 258 260 253
269 241 244 246 255 232 198 242 251 266 258 259 265 264 256 246 199 179 173 174 158 143 156 202 216 211 202 204 208 219 206 207 244 225 229 226 225 235 231 221 218 228 233 235 238 239 256 257 261
233 227 236 247 228 238 242 229 222 236 251 257 265 260 255 252 247 192 194 191 192 178 148 107 158 185 214 217 215 216 233 230 259 221 220 223 228 233 231 232 226 223 232 247 246 264 259 235 235
244 245 226 230 239 201 230 222 212 214 225 237 250 253 264 266 253 207 211 217 192 196 197 163 144 176 182 204 215 230 243 225 296 201 212 222 236 231 222 225 230 231 222 232 249 259 245 226 239
240 247 253 261 227 205 207 225 223 224 212 214 225 238 251 261 268 223 203 207 206 207 201 187 155 136 170 197 252 228 219 251 225 236 216 218 224 226 241 245 261 249 245 244 246 243 239 256 264
228 242 252 247 289 191 178 267 257 259 223 226 224 227 235 249 255 253 215 208 217 216 209 205 179 157 167 191 160 173 194 180 271 234 230 225 227 238 245 232 238 261 245 241 244 242 246 257 258
226 225 242 258 266 228 163 241 251 238 242 245 239 225 226 235 247 249 244 215 214 211 221 222 213 208 165 180 185 185 199 202 184 214 223 217 212 246 248 234 240 231 225 229 230 224 241 254 256
228 215 214 244 261 205 290 92 256 260 186 175 39 60 16 247 237 235 230 226 203 229 229 211 201 208 203 171 173 191 205 218 223 237 254 233 209 231 246 238 235 227 232 240 239 239 251 257 263
232 219 183 201 203 245 228 234 261 242 215 116 79 80 67 98 99 170 192 218 224 219 199 188 197 206 204 205 179 204 213 211 212 239 205 199 228 249 244 246 253 249 249 251 251 252 247 249 257
209 131 221 227 211 216 223 226 228 179 133 143 140 127 108 108 70 68 83 157 181 172 191 218 228 209 219 219 221 208 210 228 243 247 243 220 202 206 216 215 217 228 242 253 264 264 260 259 262
205 166 158 180 173 228 232 248 272 106 86 108 115 99 102 110 112 105 115 121 140 161 154 129 170 173 206 213 209 182 186 194 193 186 208 209 177 190 210 216 222 227 235 241 249 254 259 263 265
191 201 190 160 220 103 192 144 66 89 92 86 81 50 83 82 90 114 121 117 114 124 116 124 86 104 104 151 222 259 257 252 210 189 198 195 209 236 234 233 233 237 242 247 255 262 266 267 270
186 162 210 201 181 221 278 78 245 40 7 36 59 83 77 79 84 95 105 111 123 130 138 83 332 302 22 18 37 22 334 316 286 286 276 264 256 272 287 286 280 277 276 276 276 275 274 276 275
188 192 189 130 125 170 128 126 359 41 73 54 25 35 99 93 93 98 97 96 105 99 81 101 113 60 75 65 43 36 17 351 331 315 305 299 294 292 291 291 292 294 292 290 288 287 285 284 285
193 180 145 125 248 69 103 91 334 49 118 88 54 3 115 123 123 115 114 109 106 109 104 111 101 86 72 65 27 6 341 329 322 314 310 309 305 297 293 293 296 296 297 295 289 285 281 278 276